Probability
1 3 7 13 17 18 18 17 13 11 8 4 1 0 0 0 0 0 0 0 0 0 0 0 0 0 0 0 0 0 0 0 0 0 0 0 0 0 0 0 0 0 0
0 1 5 10 13 15 16 14 12 9 6 2 0 0 0 0 0 0 0 0 0 0 0 0 0 0 0 0 0 0 0 0 0 0 0 0 0 0 0 0 0 0 0
0 0 2 5 7 9 10 10 10 8 4 1 0 0 0 0 0 0 0 0 0 0 0 0 0 0 0 0 0 0 0 0 0 0 0 0 0 0 0 0 0 0 0
0 0 0 1 3 4 5 6 8 7 4 1 0 0 0 0 0 0 0 0 0 0 0 0 0 0 0 0 0 0 0 0 0 0 0 0 0 0 0 0 0 0 0
0 0 0 0 1 3 4 4 5 6 4 2 1 0 0 0 0 0 0 0 0 0 0 0 0 0 0 0 0 0 0 0 0 0 0 0 0 0 0 0 0 0 0
0 0 1 1 2 3 4 3 3 4 3 2 1 0 0 0 0 0 0 0 0 0 0 0 0 0 0 0 0 0 0 0 0 0 0 0 0 0 0 0 0 0 0
0 1 2 2 3 3 3 2 1 2 2 1 0 0 0 0 0 0 0 0 0 0 0 0 0 0 0 0 0 0 0 0 0 0 0 0 0 0 0 0 0 0 0
0 1 3 4 3 2 2 1 1 1 1 1 1 1 1 0 0 0 0 0 0 0 0 0 0 0 0 0 0 0 0 0 0 0 0 0 0 0 0 0 0 0 0
0 2 5 5 3 2 2 2 2 2 2 2 2 3 2 1 1 0 0 0 0 0 0 0 0 0 0 0 0 0 0 0 0 0 0 0 0 0 0 0 0 0 0
0 1 4 5 4 3 4 4 4 4 4 4 5 6 6 5 4 4 4 5 5 3 1 0 0 0 0 1 1 0 0 0 0 0 0 0 0 0 0 0 0 0 0
0 1 3 5 5 4 5 5 5 4 4 7 10 11 10 11 12 13 15 15 14 11 6 2 1 1 1 2 2 1 0 0 0 0 0 0 0 0 0 0 0 0 0
0 0 1 3 5 5 4 4 5 5 6 9 15 18 19 20 22 23 25 25 23 18 12 7 3 2 3 3 3 1 0 0 0 0 1 1 1 1 1 1 0 0 0
1 1 1 2 3 3 3 2 3 5 7 12 20 28 33 37 37 35 35 35 31 24 17 11 6 3 3 3 3 2 1 1 1 2 2 3 4 4 4 3 2 0 0
5 4 3 4 5 5 5 5 6 7 9 14 25 39 48 51 53 49 47 47 40 29 22 16 8 4 3 3 3 3 3 3 4 5 5 5 5 6 5 4 3 1 0
9 9 9 11 13 13 12 12 12 13 14 19 30 44 51 56 59 59 58 57 49 37 29 22 12 6 3 3 3 4 4 6 10 12 12 9 6 4 4 3 2 2 1
13 14 16 18 20 21 21 19 18 20 23 27 36 45 50 54 57 57 56 57 52 43 36 28 18 10 5 2 1 3 4 8 16 23 23 16 7 3 2 1 1 1 0
14 16 17 18 20 22 23 22 22 24 28 32 37 43 47 49 49 48 48 51 52 48 44 36 28 20 11 3 0 1 2 7 19 31 35 27 15 9 7 5 2 1 0
11 12 12 12 14 17 19 19 20 21 23 27 31 34 37 38 38 39 42 45 49 50 48 43 39 36 22 6 0 0 2 6 16 31 40 41 31 18 11 10 8 7 6
4 5 5 6 8 9 11 12 13 14 15 17 21 23 24 26 27 30 33 37 40 43 43 40 41 44 32 11 0 0 2 5 14 28 37 38 30 17 7 8 12 14 14
1 1 1 3 4 4 5 6 7 7 8 10 12 13 13 15 18 20 23 26 28 29 30 29 32 35 29 12 1 0 1 4 12 23 28 21 13 6 2 3 9 12 12
0 0 0 1 1 2 3 3 2 2 3 4 5 6 6 7 10 13 15 16 17 17 18 20 22 23 18 7 1 0 1 3 8 15 18 13 4 0 0 1 3 4 4
0 0 0 0 0 1 1 1 0 0 0 1 1 2 2 2 4 7 8 8 8 9 10 13 16 16 11 4 0 0 0 1 4 6 8 8 3 0 0 0 0 0 0
0 0 0 0 0 0 0 0 0 0 0 0 0 0 0 0 0 1 2 2 3 4 5 6 8 9 7 3 0 0 0 0 1 1 2 2 1 0 0 0 0 0 0
0 0 0 0 0 0 0 0 0 0 0 0 0 0 0 0 0 0 0 0 1 1 1 1 2 3 3 1 0 0 0 0 0 0 0 0 1 1 0 0 0 0 0
0 0 0 0 0 0 0 0 0 0 0 0 0 0 0 0 0 0 0 0 0 0 0 0 0 1 1 0 0 0 0 0 0 0 0 0 1 1 1 1 2 3 3
0 0 0 0 0 0 0 0 0 0 0 0 0 0 0 0 0 0 0 0 0 0 0 0 0 0 0 0 0 0 0 0 0 0 0 0 1 1 1 2 4 6 8
Wind_Speed
9 9 9 9 9 8 9 10 10 10 8 7 7 6 6 5 4 4 4 3 2 3 2 2 2 2 3 3 2 2 1 1 2 4 4 3 3 1 2 2 3 2 3
10 10 10 10 10 10 10 10 10 10 9 7 5 4 4 4 4 4 4 3 3 2 2 2 1 2 2 2 2 2 2 1 1 4 3 4 5 3 1 1 1 1 1
12 12 12 12 11 11 11 10 10 10 9 9 6 5 5 4 5 5 5 5 4 3 1 1 2 1 1 3 2 2 2 1 1 2 4 4 1 3 4 1 1 0 1
12 12 12 13 13 12 11 10 10 10 10 9 9 9 6 5 5 4 4 6 6 5 4 3 2 0 1 2 0 3 2 3 0 2 1 3 5 4 2 5 3 2 0
13 13 13 13 13 12 11 10 10 10 10 10 9 8 7 5 4 4 5 6 6 6 5 4 3 2 1 1 2 1 2 1 2 1 0 0 1 4 4 1 1 3 2
13 13 12 12 12 12 11 11 11 11 11 11 10 10 8 6 5 5 5 6 5 6 7 6 5 5 2 2 2 1 1 1 2 3 1 2 2 2 3 4 4 3 2
12 13 13 14 14 14 13 13 13 12 12 12 11 11 10 9 8 7 6 6 5 5 7 7 6 5 4 4 3 3 1 2 1 2 2 2 2 3 3 5 4 4 3
13 13 14 14 14 15 14 14 14 13 13 13 12 11 11 9 8 8 6 6 5 5 6 7 7 7 6 6 5 4 4 3 4 4 3 3 3 3 4 4 5 6 5
14 14 14 15 15 15 15 15 14 13 13 13 12 11 12 10 8 7 8 7 5 5 7 8 8 8 8 7 6 5 5 4 6 5 6 6 3 4 4 4 5 6 7
13 14 14 15 14 14 14 15 14 14 14 13 12 11 12 12 10 9 9 7 7 7 7 8 9 9 9 9 8 7 7 7 6 5 5 6 6 4 5 5 5 6 7
14 14 13 14 14 14 14 14 14 14 13 13 13 12 11 11 11 10 10 10 9 9 9 9 9 9 9 9 9 9 7 8 8 8 8 8 8 6 6 6 6 6 7
12 13 13 13 13 14 14 14 14 14 14 13 12 12 11 11 11 11 11 10 10 10 10 10 10 10 10 10 10 11 10 10 10 10 9 10 8 9 8 7 8 7 7
10 11 12 12 13 13 13 13 14 14 13 12 12 12 12 12 12 11 10 10 10 10 10 10 10 10 10 10 11 11 11 11 11 10 10 10 10 10 9 9 9 8 8
6 8 9 10 10 10 10 11 12 12 11 11 11 11 11 11 11 10 10 10 10 11 11 11 11 11 11 11 11 11 11 11 11 11 11 11 12 12 11 10 10 10 10
3 3 4 5 6 7 7 7 8 8 8 9 9 9 9 8 8 9 9 9 10 11 10 11 11 11 11 11 12 11 12 12 12 12 13 13 13 12 10 10 10 10 10
5 4 3 2 1 2 3 4 4 5 5 6 7 6 6 6 7 8 8 8 9 9 9 10 11 11 10 8 9 11 12 12 13 13 13 13 14 15 16 15 14 13 13
8 9 7 6 5 4 3 2 2 1 1 2 3 3 3 4 5 6 6 7 7 8 9 10 10 11 11 8 10 12 12 13 13 13 13 12 12 14 15 17 20 19 20
11 11 10 10 9 9 7 6 6 5 4 3 2 1 1 1 2 3 4 4 5 6 7 8 10 10 10 8 10 11 13 15 15 15 15 14 14 14 14 14 15 16 17
10 10 10 11 11 11 10 10 9 9 8 6 5 5 4 3 2 2 2 3 4 5 6 6 8 9 9 6 8 9 10 12 16 16 15 16 16 15 14 15 16 16 15
10 9 10 11 11 10 11 11 11 11 9 8 7 7 6 6 5 4 4 3 3 4 6 6 7 8 8 6 7 8 9 11 12 12 13 15 17 15 14 16 16 17 17
10 9 10 10 10 10 10 11 10 9 8 8 8 8 7 6 6 5 4 4 4 5 5 6 7 7 7 6 5 7 8 11 12 12 11 11 12 15 15 16 16 17 15
9 10 9 9 8 8 9 10 9 8 7 7 8 8 8 7 6 6 5 5 5 5 5 6 7 6 5 5 5 7 10 12 12 12 12 11 9 11 14 14 16 17 14
8 8 9 8 8 8 8 9 7 6 6 6 7 7 7 6 6 6 6 5 4 5 6 6 7 7 6 5 5 7 10 12 11 12 14 15 15 13 13 17 18 16 13
7 6 7 7 7 6 7 6 5 5 5 6 6 5 5 6 6 6 6 6 6 7 7 8 8 9 8 7 7 8 8 10 11 11 12 14 17 16 17 15 14 14 14
5 5 5 5 5 5 5 5 5 5 5 5 6 6 6 6 6 5 5 6 6 5 7 9 9 10 10 9 11 11 12 12 12 13 13 13 13 13 12 13 13 13 13
4 3 4 4 4 4 4 4 4 5 6 6 7 7 7 6 7 7 7 4 5 5 8 10 10 9 9 10 12 14 15 16 16 13 13 14 14 14 14 13 13 13 14
Wind_Direction
168 168 168 161 154 159 166 169 169 164 165 161 165 163 163 166 162 154 139 145 111 98 11 53 76 360 49 15 2 328 174 285 316 264 229 207 221 250 238 265 284 246 245
171 174 175 172 169 169 169 173 174 171 175 165 165 166 160 176 166 163 156 172 156 156 136 43 65 60 77 61 29 354 327 31 336 295 261 213 176 197 186 202 209 327 264
178 179 181 181 179 176 176 177 176 174 178 167 168 160 166 186 175 185 182 186 185 179 126 127 39 47 349 77 30 355 346 355 70 350 309 291 251 151 157 151 121 78 338
179 182 188 188 184 180 177 176 178 179 178 179 187 187 194 193 186 196 178 181 195 196 183 178 157 254 49 91 183 56 347 309 325 116 3 349 355 302 176 185 165 138 1
183 186 192 190 185 179 177 180 182 183 184 193 194 202 209 205 188 191 175 201 192 202 199 193 187 194 195 83 36 64 341 331 335 350 334 172 222 271 289 243 211 212 203
182 186 190 187 185 181 183 183 182 187 188 195 201 210 215 216 208 206 195 206 195 199 197 200 200 208 198 167 183 186 170 358 2 324 315 287 281 278 283 277 256 260 236
181 184 186 186 185 186 188 186 186 191 192 198 204 209 215 214 215 221 211 223 213 200 189 201 201 208 200 201 202 211 249 209 229 267 288 303 302 310 297 292 291 287 264
183 184 185 185 187 189 191 191 191 194 197 202 207 210 212 218 221 216 231 216 228 218 183 197 203 207 205 208 205 226 211 217 237 253 281 276 266 279 279 288 296 284 269
183 184 184 188 190 192 194 195 194 198 202 205 206 211 213 223 228 214 218 222 215 210 195 203 206 207 207 213 212 233 228 222 236 233 217 246 254 252 266 270 277 288 293
186 186 186 190 192 194 196 199 199 203 207 208 210 211 213 215 219 221 219 220 212 209 204 208 210 210 208 210 219 227 219 230 235 251 265 259 263 254 256 259 260 264 277
188 188 191 192 194 195 195 199 202 206 210 214 214 220 217 215 214 216 215 212 213 204 208 211 212 213 212 211 215 234 226 229 236 236 236 238 258 262 258 250 252 255 259
192 192 192 194 196 199 201 203 207 210 213 214 214 217 220 218 217 216 214 211 211 210 210 212 214 217 217 215 217 226 229 230 235 237 238 240 237 236 254 258 255 254 258
196 196 196 198 202 205 208 209 210 214 215 213 214 216 218 217 219 222 216 211 211 214 215 213 217 221 223 221 223 227 231 232 235 237 237 239 241 240 242 243 251 252 246
191 200 198 201 207 211 212 217 219 217 216 214 216 217 219 219 220 220 218 214 213 215 216 218 222 224 226 227 227 228 231 235 237 238 239 239 238 238 240 241 243 251 257
145 177 198 199 203 207 213 219 225 225 222 219 221 223 221 222 223 222 221 218 216 218 219 223 226 228 230 230 229 232 234 236 239 239 239 239 238 240 240 246 244 241 244
84 85 87 111 154 192 201 206 218 222 217 222 228 230 226 224 224 222 220 220 222 226 225 227 231 232 236 223 219 236 247 244 244 245 243 242 231 230 228 239 249 253 250
71 69 66 62 54 47 57 88 94 110 160 207 232 229 228 233 237 236 229 228 231 232 233 236 237 240 242 221 213 222 245 252 251 249 247 247 243 230 233 226 228 237 243
70 67 67 67 65 61 59 62 72 72 72 65 51 42 254 249 255 252 251 250 248 247 245 246 247 249 247 220 217 221 238 252 254 251 247 247 251 245 239 241 236 235 232
71 69 68 69 66 66 66 65 64 61 55 49 42 36 31 31 17 345 313 292 277 268 264 261 261 260 261 232 219 222 250 251 253 253 251 248 249 244 232 241 247 248 246
74 72 73 70 66 64 67 69 62 57 49 44 44 44 40 33 27 17 356 340 308 291 285 281 275 271 271 256 228 223 258 262 262 258 255 249 247 249 227 236 244 248 248
87 80 72 69 66 66 66 67 62 56 49 46 48 46 39 37 32 19 9 354 336 323 308 301 293 286 283 278 247 232 259 272 273 269 264 260 240 238 235 234 245 250 255
94 88 81 74 67 66 72 73 65 55 51 48 46 42 34 23 25 17 7 356 341 318 308 304 299 294 294 290 282 254 251 268 279 279 278 279 276 254 243 238 245 247 250
95 92 92 85 75 67 65 68 66 55 50 44 39 33 28 24 15 0 353 341 337 323 323 318 311 309 311 303 272 265 267 266 272 279 280 284 285 277 260 244 238 238 241
97 92 86 82 77 67 63 61 54 40 32 26 18 11 5 1 7 344 343 341 338 335 331 324 318 315 311 312 327 325 310 291 278 280 284 275 264 257 256 258 242 237 238
99 86 81 76 71 65 56 46 37 18 7 0 350 341 341 348 332 328 329 323 331 341 317 318 316 315 313 333 341 317 308 309 310 310 294 281 273 266 258 252 247 242 235
101 85 69 58 49 47 48 37 21 4 346 339 338 332 329 333 322 319 313 274 263 242 237 250 269 292 294 303 301 295 288 282 282 284 278 275 273 271 269 264 257 247 242